This is the latest recevied weather packets stored in our database for station/object KO4DYK. If no packets are shown the sender has not sent any weather packets the latest 10 day(s).
| Time | Temp. | Humidity | Pressure | Rain* | Wind** | Luminosity | Snow |
|---|---|---|---|---|---|---|---|
| 1777417124 | 20° C | 99% | 1016.7 hPa | 0 mm | - | 23 W/m² | - |
| 1777416820 | 20° C | 99% | 1016.5 hPa | 0 mm | - | 17 W/m² | - |
| 1777416515 | 20° C | 99% | 1016.1 hPa | 0 mm | - | 13 W/m² | - |
| 1777416212 | 19.44° C | 99% | 1016.1 hPa | 0 mm | - | 10 W/m² | - |
| 1777415911 | 20° C | 99% | 1015.8 hPa | 1.27 mm | - | 7 W/m² | - |
| 1777415608 | 20° C | 99% | 1015.8 hPa | 1.78 mm | - | 5 W/m² | - |
| 1777415303 | 20° C | 99% | 1015.5 hPa | 7.87 mm | - | 3 W/m² | - |
| 1777414998 | 20° C | 99% | 1016.7 hPa | 18.03 mm | - | 1 W/m² | - |
| 1777414697 | 20.56° C | 99% | 1017.5 hPa | 36.58 mm | - | 1 W/m² | - |
| 1777414394 | 21.11° C | 99% | 1018.9 hPa | 13.72 mm | - | 0 W/m² | - |
| 1777414093 | 21.67° C | 99% | 1017.8 hPa | 8.89 mm | - | 0 W/m² | - |
| 1777413789 | 22.22° C | 99% | 1016.7 hPa | 10.16 mm | - | 2 W/m² | - |
| 1777413489 | 22.78° C | 99% | 1016.9 hPa | 8.89 mm | - | 0 W/m² | - |
| 1777413186 | 23.33° C | 99% | 1017 hPa | 32.51 mm | - | 0 W/m² | - |
| 1777412881 | 23.33° C | 97% | 1016.9 hPa | 26.92 mm | - | 2 W/m² | - |
| 1777412575 | 23.89° C | 95% | 1017.2 hPa | 0 mm | - | 0 W/m² | - |
| 1777412272 | 23.89° C | 95% | 1015.8 hPa | 0 mm | - | 0 W/m² | - |
| 1777411969 | 23.89° C | 95% | 1015.3 hPa | 0 mm | - | 0 W/m² | - |
| 1777411668 | 23.89° C | 94% | 1015.4 hPa | 0 mm | - | 1 W/m² | - |
| 1777411363 | 23.89° C | 94% | 1015.1 hPa | 0 mm | - | 3 W/m² | - |
| 1777411062 | 24.44° C | 93% | 1015.4 hPa | 0 mm | - | 3 W/m² | - |
| 1777410757 | 24.44° C | 93% | 1015.9 hPa | 0 mm | - | 0 W/m² | - |
| 1777410456 | 24.44° C | 93% | 1015.2 hPa | 0 mm | - | 4 W/m² | - |
| 1777410156 | 24.44° C | 92% | 1014.9 hPa | 0 mm | - | 8 W/m² | - |
| 1777409851 | 24.44° C | 92% | 1014.7 hPa | 0 mm | - | 10 W/m² | - |
* Rain latest hour (hover to see other rain measurements)
** Current wind speed in m/s (hover to see current wind gust speed)